Flag for U.S.A. Weather past 2 weeks in Provo, Utah, U.S.A.

Now
57 °F

Partly sunny.


Feels Like: 57 °F
Forecast: 52 / 67 °F
Wind: 5 mph from Southeast

Location: Provo Municipal

Current Time: May 5, 2015 at 9:28:13 AM

Latest Report: May 5, 2015 at 8:47 AM


Visibility: 15 mi

Pressure: 29.88 "Hg

Humidity: 67%

Dew point: 46 °F

Location of ProvoLocation

Historic Weather in Provo — Graph

°F

Provo temperature yesterday

Maximum temperature yesterday: 70 °F (at 2:54 PM)
Minimum temperature yesterday: 54 °F (at 6:51 AM)
Average temperature yesterday: 61 °F

Past Weeks' High & Low Weather Summary

 TemperatureHumidityPressure
High79 °F (Apr 29, 3:47 PM)93% (May 3, 5:50 PM)30.26 "Hg (May 3, 5:50 PM)
Low36 °F (May 3, 5:50 PM)14% (Apr 21, 4:58 PM)29.68 "Hg (Apr 24, 2:47 PM)
Average54 °F55%29.95 "Hg
* Reported Apr 20 7:47 AM — May 5 7:47 AM, Provo, Weather by CustomWeather, © 2015

Note: Actual official high and low records may vary slightly from our data, if they occured in-between our weather recording intervals... More about our weather records

Advertising

Provo weather history for previous 24 hours

 ConditionsComfort  
Time TempWeatherWind HumidityBarometerVisibility
7:47 AM
Tue, May 5
55 °FOvercast.5 mph67%29.88 "Hg15 mi
6:47 AM52 °FOvercast.3 mph77%29.88 "Hg15 mi
6:35 AM54 °FPassing clouds.3 mph72%29.88 "Hg10 mi
6:15 AM54 °FPassing clouds.3 mph72%29.87 "Hg10 mi
5:55 AM54 °FPassing clouds.6 mph72%29.87 "Hg10 mi
5:35 AM52 °FClear.3 mph77%29.87 "Hg10 mi
5:15 AM52 °FPassing clouds.3 mph77%29.88 "Hg10 mi
4:55 AM54 °FPassing clouds.3 mph77%29.88 "Hg10 mi
4:35 AM54 °FPassing clouds.3 mph77%29.88 "Hg10 mi
4:15 AM54 °FPassing clouds.No wind77%29.88 "Hg10 mi
3:55 AM55 °FOvercast.5 mph67%29.88 "Hg10 mi
3:35 AM55 °FOvercast.3 mph72%29.88 "Hg10 mi
3:15 AM55 °FPassing clouds.7 mph72%29.88 "Hg10 mi
2:55 AM55 °FMostly cloudy.No wind72%29.89 "Hg10 mi
2:35 AM55 °FMostly cloudy.No wind72%29.89 "Hg10 mi
2:15 AM55 °FOvercast.No wind72%29.89 "Hg10 mi
1:55 AM55 °FOvercast.No wind72%29.89 "Hg10 mi
1:35 AM54 °FPassing clouds.No wind77%29.89 "Hg10 mi
1:15 AM55 °FClear.No wind72%29.90 "Hg10 mi
12:55 AM57 °FPassing clouds.No wind67%29.91 "Hg10 mi
12:35 AM55 °FPassing clouds.5 mph72%29.91 "Hg10 mi
12:15 AM55 °FPassing clouds.6 mph77%29.91 "Hg10 mi
11:55 PM
Mon, May 4
55 °FPassing clouds.6 mph77%29.92 "Hg10 mi
11:35 PM57 °FPassing clouds.7 mph72%29.92 "Hg10 mi
11:15 PM59 °FPassing clouds.6 mph63%29.92 "Hg10 mi
10:55 PM57 °FPartly cloudy.10 mph67%29.92 "Hg10 mi
10:35 PM59 °FPartly cloudy.13 mph63%29.92 "Hg10 mi
10:15 PM61 °FPassing clouds.14 mph55%29.92 "Hg10 mi
9:35 PM63 °FClear.8 mph56%29.90 "Hg10 mi
9:15 PM64 °FPassing clouds.No wind52%29.89 "Hg10 mi
8:55 PM64 °FPassing clouds.No wind46%29.88 "Hg10 mi
7:47 PM64 °FBroken clouds.No wind43%29.86 "Hg15 mi
6:59 PM66 °FBroken clouds.7 mph49%29.86 "Hg15 mi
5:53 PM70 °FBroken clouds.9 mph40%29.86 "Hg15 mi
4:53 PM70 °FBroken clouds.9 mph38%29.88 "Hg15 mi
3:53 PM70 °FBroken clouds.10 mph38%29.89 "Hg15 mi
2:54 PM70 °FBroken clouds.8 mph33%29.90 "Hg15 mi
1:47 PM68 °FScattered clouds.6 mph33%29.92 "Hg15 mi
12:54 PM68 °FScattered clouds.5 mph35%29.93 "Hg15 mi
11:47 AM68 °FScattered clouds.6 mph40%29.96 "Hg15 mi
10:51 AM66 °FScattered clouds.6 mph43%29.97 "Hg15 mi
9:48 AM63 °FScattered clouds.No wind49%29.98 "Hg15 mi
Weather by CustomWeather, © 2015

See weather overviewHow to use our weather pages